Time,TemperatureF,DewpointF,PressureIn,WindDirection,WindDirectionDegrees,WindSpeedMPH,WindSpeedGustMPH,Humidity,HourlyPrecipIn,Conditions,Clouds,dailyrainin,SoftwareType,DateUTC
2013-03-08 00:00:00,35.2,25.7,30.25,NW,313,1.0,1.0,68,0.00,,,0.00,Wunderground v.1.15,2013-03-08 05:00:00,
2013-03-08 00:02:00,35.2,25.7,30.25,NW,313,1.0,1.0,68,0.00,,,0.00,Wunderground v.1.15,2013-03-08 05:02:00,
2013-03-08 00:05:00,35.1,25.6,30.25,WNW,284,1.0,2.0,68,0.00,,,0.00,Wunderground v.1.15,2013-03-08 05:05:00,
2013-03-08 00:06:00,35.1,25.6,30.25,WNW,284,1.0,2.0,68,0.00,,,0.00,Wunderground v.1.15,2013-03-08 05:06:00,
2013-03-08 00:12:00,35.1,25.6,30.26,NNW,327,1.0,1.0,68,0.00,,,0.00,Wunderground v.1.15,2013-03-08 05:12:00,
2013-03-08 00:18:00,35.0,25.5,30.25,NW,326,1.0,2.0,68,0.00,,,0.00,Wunderground v.1.15,2013-03-08 05:18:00,
2013-03-08 00:23:00,35.0,25.5,30.25,NW,326,1.0,1.0,68,0.00,,,0.00,Wunderground v.1.15,2013-03-08 05:23:00,
2013-03-08 00:29:00,34.9,25.4,30.25,NW,326,0.0,3.0,68,0.00,,,0.00,Wunderground v.1.15,2013-03-08 05:29:00,
2013-03-08 00:34:00,34.8,25.3,30.25,NW,326,1.0,2.0,68,0.00,,,0.00,Wunderground v.1.15,2013-03-08 05:34:00,
2013-03-08 00:40:00,34.7,25.6,30.25,NNW,338,0.0,0.0,69,0.00,,,0.00,Wunderground v.1.15,2013-03-08 05:40:00,
2013-03-08 00:46:00,34.6,25.5,30.25,NW,313,1.0,4.0,69,0.00,,,0.00,Wunderground v.1.15,2013-03-08 05:46:00,
2013-03-08 00:51:00,34.6,25.5,30.25,NW,313,1.0,2.0,69,0.00,,,0.00,Wunderground v.1.15,2013-03-08 05:51:00,
2013-03-08 00:57:00,34.8,25.7,30.25,NNW,342,1.0,2.0,69,0.00,,,0.00,Wunderground v.1.15,2013-03-08 05:57:00,
2013-03-08 01:03:00,34.8,25.3,30.24,NNW,342,1.0,1.0,68,0.00,,,0.00,Wunderground v.1.15,2013-03-08 06:03:00,
2013-03-08 01:09:00,34.8,25.3,30.25,West,266,1.0,4.0,68,0.00,,,0.00,Wunderground v.1.15,2013-03-08 06:09:00,
2013-03-08 01:14:00,34.8,25.3,30.25,NNW,333,1.0,3.0,68,0.00,,,0.00,Wunderground v.1.15,2013-03-08 06:14:00,
2013-03-08 01:20:00,34.9,25.4,30.25,NNW,344,2.0,2.0,68,0.00,,,0.00,Wunderground v.1.15,2013-03-08 06:20:00,
2013-03-08 01:26:00,34.9,25.4,30.25,NNW,344,1.0,2.0,68,0.00,,,0.00,Wunderground v.1.15,2013-03-08 06:26:00,
2013-03-08 01:31:00,34.8,25.3,30.24,NNW,337,1.0,1.0,68,0.00,,,0.00,Wunderground v.1.15,2013-03-08 06:31:00,
2013-03-08 01:37:00,34.7,25.2,30.25,NW,315,1.0,2.0,68,0.00,,,0.00,Wunderground v.1.15,2013-03-08 06:37:00,
2013-03-08 01:43:00,34.6,25.5,30.25,WSW,245,1.0,2.0,69,0.00,,,0.00,Wunderground v.1.15,2013-03-08 06:43:00,
2013-03-08 01:49:00,34.6,25.5,30.25,West,273,1.0,2.0,69,0.00,,,0.00,Wunderground v.1.15,2013-03-08 06:49:00,
2013-03-08 01:54:00,34.6,25.5,30.24,West,273,1.0,2.0,69,0.00,,,0.00,Wunderground v.1.15,2013-03-08 06:54:00,
2013-03-08 02:00:00,34.4,25.3,30.24,NNW,347,1.0,2.0,69,0.00,,,0.00,Wunderground v.1.15,2013-03-08 07:00:00,
2013-03-08 02:06:00,34.4,25.3,30.24,NNW,334,1.0,4.0,69,0.00,,,0.00,Wunderground v.1.15,2013-03-08 07:06:00,
2013-03-08 02:12:00,34.5,25.4,30.24,NNW,334,1.0,3.0,69,0.00,,,0.00,Wunderground v.1.15,2013-03-08 07:12:00,
2013-03-08 02:17:00,34.5,25.4,30.24,NNW,346,0.0,3.0,69,0.00,,,0.00,Wunderground v.1.15,2013-03-08 07:17:00,
2013-03-08 02:23:00,34.5,25.7,30.24,NNW,342,1.0,4.0,70,0.00,,,0.00,Wunderground v.1.15,2013-03-08 07:23:00,
2013-03-08 02:29:00,34.5,25.7,30.23,NNW,342,1.0,4.0,70,0.00,,,0.00,Wunderground v.1.15,2013-03-08 07:29:00,
2013-03-08 02:35:00,34.4,25.6,30.23,NNW,342,1.0,1.0,70,0.00,,,0.00,Wunderground v.1.15,2013-03-08 07:35:00,
2013-03-08 02:41:00,34.5,25.7,30.23,NNW,338,1.0,1.0,70,0.00,,,0.00,Wunderground v.1.15,2013-03-08 07:41:00,
2013-03-08 02:47:00,34.3,25.5,30.22,West,278,1.0,1.0,70,0.00,,,0.00,Wunderground v.1.15,2013-03-08 07:47:00,
2013-03-08 02:53:00,34.3,25.5,30.22,North,360,1.0,2.0,70,0.00,,,0.00,Wunderground v.1.15,2013-03-08 07:53:00,
2013-03-08 02:58:00,34.3,25.5,30.22,North,355,1.0,4.0,70,0.00,,,0.00,Wunderground v.1.15,2013-03-08 07:58:00,
2013-03-08 03:04:00,34.2,25.8,30.22,North,355,1.0,1.0,71,0.00,,,0.00,Wunderground v.1.15,2013-03-08 08:04:00,
2013-03-08 03:10:00,34.2,25.8,30.22,NNE,12,1.0,1.0,71,0.00,,,0.00,Wunderground v.1.15,2013-03-08 08:10:00,
2013-03-08 03:16:00,34.2,25.8,30.22,NNW,336,1.0,3.0,71,0.00,,,0.00,Wunderground v.1.15,2013-03-08 08:16:00,
2013-03-08 03:21:00,34.2,25.8,30.22,North,350,1.0,1.0,71,0.00,,,0.00,Wunderground v.1.15,2013-03-08 08:21:00,
2013-03-08 03:27:00,34.3,25.9,30.22,NW,312,2.0,2.0,71,0.00,,,0.00,Wunderground v.1.15,2013-03-08 08:27:00,
2013-03-08 03:33:00,34.3,25.9,30.22,West,281,1.0,3.0,71,0.00,,,0.00,Wunderground v.1.15,2013-03-08 08:33:00,
2013-03-08 03:38:00,34.3,25.9,30.23,NW,323,1.0,3.0,71,0.00,,,0.00,Wunderground v.1.15,2013-03-08 08:38:00,
2013-03-08 03:44:00,34.1,25.7,30.22,West,269,1.0,1.0,71,0.00,,,0.00,Wunderground v.1.15,2013-03-08 08:44:00,
2013-03-08 03:50:00,34.1,25.7,30.23,West,271,1.0,1.0,71,0.00,,,0.00,Wunderground v.1.15,2013-03-08 08:50:00,
2013-03-08 03:56:00,33.9,25.5,30.22,West,271,0.0,3.0,71,0.00,,,0.00,Wunderground v.1.15,2013-03-08 08:56:00,
2013-03-08 04:01:00,33.8,25.4,30.22,West,271,1.0,1.0,71,0.00,,,0.00,Wunderground v.1.15,2013-03-08 09:01:00,
2013-03-08 04:07:00,33.5,25.4,30.22,West,271,0.0,1.0,72,0.00,,,0.00,Wunderground v.1.15,2013-03-08 09:07:00,
2013-03-08 04:13:00,33.3,25.2,30.22,NW,311,0.0,2.0,72,0.00,,,0.00,Wunderground v.1.15,2013-03-08 09:13:00,
2013-03-08 04:19:00,33.4,25.3,30.22,NNW,332,1.0,3.0,72,0.00,,,0.00,Wunderground v.1.15,2013-03-08 09:19:00,
2013-03-08 04:25:00,33.4,25.3,30.22,NE,44,1.0,2.0,72,0.00,,,0.00,Wunderground v.1.15,2013-03-08 09:25:00,
2013-03-08 04:30:00,33.3,25.2,30.22,NNW,346,1.0,1.0,72,0.00,,,0.00,Wunderground v.1.15,2013-03-08 09:30:00,
2013-03-08 04:36:00,33.3,25.2,30.22,NNW,331,1.0,1.0,72,0.00,,,0.00,Wunderground v.1.15,2013-03-08 09:36:00,
2013-03-08 04:42:00,33.2,25.1,30.23,NNW,340,0.0,1.0,72,0.00,,,0.00,Wunderground v.1.15,2013-03-08 09:42:00,
2013-03-08 04:47:00,33.1,25.4,30.23,West,259,1.0,2.0,73,0.00,,,0.00,Wunderground v.1.15,2013-03-08 09:47:00,
2013-03-08 04:53:00,32.9,25.2,30.22,West,259,0.0,0.0,73,0.00,,,0.00,Wunderground v.1.15,2013-03-08 09:53:00,
2013-03-08 04:59:00,32.8,25.4,30.23,WNW,286,0.0,1.0,74,0.00,,,0.00,Wunderground v.1.15,2013-03-08 09:59:00,
2013-03-08 05:05:00,32.6,25.2,30.23,SW,235,0.0,2.0,74,0.00,,,0.00,Wunderground v.1.15,2013-03-08 10:05:00,
2013-03-08 05:11:00,32.4,25.4,30.23,SW,236,0.0,0.0,75,0.00,,,0.00,Wunderground v.1.15,2013-03-08 10:11:00,
2013-03-08 05:16:00,32.1,25.1,30.23,SW,236,0.0,1.0,75,0.00,,,0.00,Wunderground v.1.15,2013-03-08 10:16:00,
2013-03-08 05:22:00,32.0,25.0,30.24,SW,232,0.0,2.0,75,0.00,,,0.00,Wunderground v.1.15,2013-03-08 10:22:00,
2013-03-08 05:28:00,32.0,25.3,30.24,SW,232,1.0,2.0,76,0.00,,,0.00,Wunderground v.1.15,2013-03-08 10:28:00,
2013-03-08 05:34:00,32.0,25.0,30.24,SW,232,1.0,1.0,75,0.00,,,0.00,Wunderground v.1.15,2013-03-08 10:34:00,
2013-03-08 05:39:00,31.9,25.2,30.24,SW,232,1.0,3.0,76,0.00,,,0.00,Wunderground v.1.15,2013-03-08 10:39:00,
2013-03-08 05:45:00,31.9,25.2,30.24,SW,229,1.0,2.0,76,0.00,,,0.00,Wunderground v.1.15,2013-03-08 10:45:00,
2013-03-08 05:50:00,32.1,25.4,30.24,SW,229,1.0,1.0,76,0.00,,,0.00,Wunderground v.1.15,2013-03-08 10:50:00,
2013-03-08 05:56:00,32.5,25.5,30.24,West,265,1.0,4.0,75,0.00,,,0.00,Wunderground v.1.15,2013-03-08 10:56:00,
2013-03-08 06:01:00,32.7,25.3,30.24,SW,232,1.0,1.0,74,0.00,,,0.00,Wunderground v.1.15,2013-03-08 11:01:00,
2013-03-08 06:07:00,32.7,25.3,30.25,SW,231,1.0,1.0,74,0.00,,,0.00,Wunderground v.1.15,2013-03-08 11:07:00,
2013-03-08 06:12:00,32.8,25.4,30.25,WNW,286,2.0,5.0,74,0.00,,,0.00,Wunderground v.1.15,2013-03-08 11:12:00,
2013-03-08 06:18:00,33.0,25.6,30.25,West,264,2.0,5.0,74,0.00,,,0.00,Wunderground v.1.15,2013-03-08 11:18:00,
2013-03-08 06:24:00,33.1,25.7,30.26,WSW,249,2.0,3.0,74,0.00,,,0.00,Wunderground v.1.15,2013-03-08 11:24:00,
2013-03-08 06:29:00,33.4,25.7,30.26,WNW,289,2.0,3.0,73,0.00,,,0.00,Wunderground v.1.15,2013-03-08 11:29:00,
2013-03-08 06:35:00,33.5,25.8,30.26,NNW,333,2.0,3.0,73,0.00,,,0.00,Wunderground v.1.15,2013-03-08 11:35:00,
2013-03-08 06:40:00,33.6,25.9,30.26,WNW,298,2.0,3.0,73,0.00,,,0.00,Wunderground v.1.15,2013-03-08 11:40:00,
2013-03-08 06:46:00,33.8,25.7,30.26,South,187,2.0,4.0,72,0.00,,,0.00,Wunderground v.1.15,2013-03-08 11:46:00,
2013-03-08 06:52:00,33.8,25.7,30.25,SW,230,1.0,2.0,72,0.00,,,0.00,Wunderground v.1.15,2013-03-08 11:52:00,
2013-03-08 06:57:00,33.8,25.7,30.25,SW,231,1.0,2.0,72,0.00,,,0.00,Wunderground v.1.15,2013-03-08 11:57:00,
2013-03-08 07:03:00,34.0,25.9,30.25,NW,304,1.0,3.0,72,0.00,,,0.00,Wunderground v.1.15,2013-03-08 12:03:00,
2013-03-08 07:08:00,34.1,26.0,30.26,West,259,2.0,3.0,72,0.00,,,0.00,Wunderground v.1.15,2013-03-08 12:08:00,
2013-03-08 07:14:00,34.1,25.7,30.26,SSW,200,2.0,3.0,71,0.00,,,0.00,Wunderground v.1.15,2013-03-08 12:14:00,
2013-03-08 07:19:00,34.1,25.7,30.26,WSW,254,3.0,5.0,71,0.00,,,0.00,Wunderground v.1.15,2013-03-08 12:19:00,
2013-03-08 07:25:00,34.2,25.8,30.26,WNW,285,3.0,3.0,71,0.00,,,0.00,Wunderground v.1.15,2013-03-08 12:25:00,
2013-03-08 07:31:00,34.4,26.0,30.26,WSW,244,2.0,2.0,71,0.00,,,0.00,Wunderground v.1.15,2013-03-08 12:31:00,
2013-03-08 07:36:00,34.6,26.2,30.26,West,265,2.0,4.0,71,0.00,,,0.00,Wunderground v.1.15,2013-03-08 12:36:00,
2013-03-08 07:42:00,34.8,26.4,30.26,West,278,2.0,3.0,71,0.00,,,0.00,Wunderground v.1.15,2013-03-08 12:42:00,
2013-03-08 07:47:00,35.1,26.6,30.27,West,261,3.0,6.0,71,0.00,,,0.00,Wunderground v.1.15,2013-03-08 12:47:00,
2013-03-08 07:53:00,35.5,26.7,30.26,WSW,244,4.0,6.0,70,0.00,,,0.00,Wunderground v.1.15,2013-03-08 12:53:00,
2013-03-08 07:59:00,36.0,27.2,30.26,WSW,243,4.0,7.0,70,0.00,,,0.00,Wunderground v.1.15,2013-03-08 12:59:00,
2013-03-08 08:04:00,36.4,27.2,30.27,NW,304,5.0,6.0,69,0.00,,,0.00,Wunderground v.1.15,2013-03-08 13:04:00,
2013-03-08 08:10:00,37.0,27.4,30.27,WSW,253,4.0,4.0,68,0.00,,,0.00,Wunderground v.1.15,2013-03-08 13:10:00,
2013-03-08 08:15:00,37.3,27.3,30.28,West,264,4.0,10.0,67,0.00,,,0.00,Wunderground v.1.15,2013-03-08 13:15:00,
2013-03-08 08:21:00,37.8,27.8,30.28,NW,322,5.0,5.0,67,0.00,,,0.00,Wunderground v.1.15,2013-03-08 13:21:00,
2013-03-08 08:27:00,38.5,27.7,30.28,WNW,289,3.0,7.0,65,0.00,,,0.00,Wunderground v.1.15,2013-03-08 13:27:00,
2013-03-08 08:33:00,39.1,28.3,30.28,West,278,5.0,5.0,65,0.00,,,0.00,Wunderground v.1.15,2013-03-08 13:33:00,
2013-03-08 08:38:00,39.7,28.1,30.28,NNW,333,5.0,8.0,63,0.00,,,0.00,Wunderground v.1.15,2013-03-08 13:38:00,
2013-03-08 08:44:00,40.4,28.4,30.28,North,5,5.0,6.0,62,0.00,,,0.00,Wunderground v.1.15,2013-03-08 13:44:00,
2013-03-08 08:49:00,40.9,28.5,30.28,NW,309,5.0,11.0,61,0.00,,,0.00,Wunderground v.1.15,2013-03-08 13:49:00,
2013-03-08 08:55:00,41.1,28.3,30.27,NNW,347,6.0,12.0,60,0.00,,,0.00,Wunderground v.1.15,2013-03-08 13:55:00,
2013-03-08 09:00:00,41.1,28.3,30.28,WNW,284,7.0,10.0,60,0.00,,,0.00,Wunderground v.1.15,2013-03-08 14:00:00,
2013-03-08 09:06:00,41.7,28.8,30.28,West,276,7.0,10.0,60,0.00,,,0.00,Wunderground v.1.15,2013-03-08 14:06:00,
2013-03-08 09:12:00,42.1,27.9,30.28,North,5,7.0,15.0,57,0.00,,,0.00,Wunderground v.1.15,2013-03-08 14:12:00,
2013-03-08 09:17:00,42.4,28.7,30.28,WNW,295,8.0,15.0,58,0.00,,,0.00,Wunderground v.1.15,2013-03-08 14:17:00,
2013-03-08 09:23:00,42.9,29.1,30.28,NNW,331,7.0,8.0,58,0.00,,,0.00,Wunderground v.1.15,2013-03-08 14:23:00,
2013-03-08 09:29:00,43.1,28.0,30.28,WNW,296,8.0,13.0,55,0.00,,,0.00,Wunderground v.1.15,2013-03-08 14:29:00,
2013-03-08 09:35:00,43.2,27.2,30.28,NNE,23,9.0,16.0,53,0.00,,,0.00,Wunderground v.1.15,2013-03-08 14:35:00,
2013-03-08 09:40:00,43.1,27.1,30.28,NE,39,11.0,13.0,53,0.00,,,0.00,Wunderground v.1.15,2013-03-08 14:40:00,
2013-03-08 09:46:00,43.6,27.1,30.28,NW,321,10.0,13.0,52,0.00,,,0.00,Wunderground v.1.15,2013-03-08 14:46:00,
2013-03-08 09:51:00,43.8,27.8,30.28,NNE,13,7.0,9.0,53,0.00,,,0.00,Wunderground v.1.15,2013-03-08 14:51:00,
2013-03-08 09:57:00,44.2,27.2,30.28,NNE,21,8.0,16.0,51,0.00,,,0.00,Wunderground v.1.15,2013-03-08 14:57:00,
2013-03-08 10:03:00,44.2,27.2,30.28,NNW,333,9.0,10.0,51,0.00,,,0.00,Wunderground v.1.15,2013-03-08 15:03:00,
2013-03-08 10:40:00,45.4,26.3,30.27,NNW,338,11.0,11.0,47,0.00,,,0.00,Wunderground v.1.15,2013-03-08 15:40:00,
2013-03-08 10:46:00,46.1,25.9,30.28,NNE,26,11.0,18.0,45,0.00,,,0.00,Wunderground v.1.15,2013-03-08 15:46:00,
2013-03-08 10:52:00,45.9,25.7,30.27,NNE,19,12.0,19.0,45,0.00,,,0.00,Wunderground v.1.15,2013-03-08 15:52:00,
2013-03-08 10:58:00,45.7,25.0,30.27,North,5,12.0,19.0,44,0.00,,,0.00,Wunderground v.1.15,2013-03-08 15:58:00,
2013-03-08 11:04:00,45.6,24.9,30.26,NNW,332,11.0,12.0,44,0.00,,,0.00,Wunderground v.1.15,2013-03-08 16:04:00,
2013-03-08 11:10:00,46.0,25.3,30.26,North,5,10.0,13.0,44,0.00,,,0.00,Wunderground v.1.15,2013-03-08 16:10:00,
2013-03-08 11:16:00,46.3,25.6,30.26,NNE,22,9.0,13.0,44,0.00,,,0.00,Wunderground v.1.15,2013-03-08 16:16:00,
2013-03-08 11:21:00,46.6,25.8,30.26,NNE,14,9.0,11.0,44,0.00,,,0.00,Wunderground v.1.15,2013-03-08 16:21:00,
2013-03-08 11:27:00,47.3,25.3,30.25,NNE,17,9.0,12.0,42,0.00,,,0.00,Wunderground v.1.15,2013-03-08 16:27:00,
2013-03-08 11:33:00,47.8,26.4,30.25,North,360,10.0,18.0,43,0.00,,,0.00,Wunderground v.1.15,2013-03-08 16:33:00,
2013-03-08 11:38:00,47.3,25.9,30.25,WNW,282,10.0,18.0,43,0.00,,,0.00,Wunderground v.1.15,2013-03-08 16:38:00,
2013-03-08 11:44:00,47.7,27.4,30.25,North,355,9.0,14.0,45,0.00,,,0.00,Wunderground v.1.15,2013-03-08 16:44:00,
2013-03-08 11:50:00,47.8,25.8,30.25,NNW,340,8.0,8.0,42,0.00,,,0.00,Wunderground v.1.15,2013-03-08 16:50:00,
2013-03-08 11:56:00,47.9,25.9,30.25,NW,309,8.0,15.0,42,0.00,,,0.00,Wunderground v.1.15,2013-03-08 16:56:00,
2013-03-08 12:02:00,48.3,25.1,30.25,NNW,338,8.0,11.0,40,0.00,,,0.00,Wunderground v.1.15,2013-03-08 17:02:00,
2013-03-08 12:07:00,48.3,24.5,30.24,North,355,8.0,11.0,39,0.00,,,0.00,Wunderground v.1.15,2013-03-08 17:07:00,
2013-03-08 12:13:00,48.6,25.9,30.24,North,355,9.0,14.0,41,0.00,,,0.00,Wunderground v.1.15,2013-03-08 17:13:00,
2013-03-08 12:19:00,49.2,27.1,30.24,NW,320,9.0,14.0,42,0.00,,,0.00,Wunderground v.1.15,2013-03-08 17:19:00,
2013-03-08 12:25:00,49.6,26.2,30.24,NW,315,7.0,12.0,40,0.00,,,0.00,Wunderground v.1.15,2013-03-08 17:25:00,
2013-03-08 12:30:00,49.0,25.7,30.23,West,263,9.0,9.0,40,0.00,,,0.00,Wunderground v.1.15,2013-03-08 17:30:00,
2013-03-08 12:36:00,49.0,26.3,30.24,WNW,294,8.0,9.0,41,0.00,,,0.00,Wunderground v.1.15,2013-03-08 17:36:00,
2013-03-08 12:42:00,49.4,25.4,30.23,North,355,7.0,13.0,39,0.00,,,0.00,Wunderground v.1.15,2013-03-08 17:42:00,
2013-03-08 12:48:00,49.9,25.9,30.23,WNW,290,8.0,15.0,39,0.00,,,0.00,Wunderground v.1.15,2013-03-08 17:48:00,
2013-03-08 12:54:00,49.8,25.8,30.23,West,266,7.0,13.0,39,0.00,,,0.00,Wunderground v.1.15,2013-03-08 17:54:00,
2013-03-08 12:59:00,50.3,26.9,30.22,NW,320,8.0,13.0,40,0.00,,,0.00,Wunderground v.1.15,2013-03-08 17:59:00,
2013-03-08 13:04:00,50.5,26.4,30.22,NW,315,7.0,8.0,39,0.00,,,0.00,Wunderground v.1.15,2013-03-08 18:04:00,
2013-03-08 13:10:00,50.0,26.0,30.21,WNW,289,7.0,7.0,39,0.00,,,0.00,Wunderground v.1.15,2013-03-08 18:10:00,
2013-03-08 13:16:00,50.7,26.0,30.21,NNE,32,7.0,13.0,38,0.00,,,0.00,Wunderground v.1.15,2013-03-08 18:16:00,
2013-03-08 13:22:00,51.0,26.3,30.20,West,263,7.0,11.0,38,0.00,,,0.00,Wunderground v.1.15,2013-03-08 18:22:00,
2013-03-08 13:28:00,51.5,26.1,30.20,NNW,348,7.0,12.0,37,0.00,,,0.00,Wunderground v.1.15,2013-03-08 18:28:00,
2013-03-08 13:33:00,52.0,27.1,30.20,North,350,7.0,9.0,38,0.00,,,0.00,Wunderground v.1.15,2013-03-08 18:33:00,
2013-03-08 13:39:00,52.1,25.9,30.20,NNW,336,7.0,9.0,36,0.00,,,0.00,Wunderground v.1.15,2013-03-08 18:39:00,
2013-03-08 13:45:00,51.2,25.1,30.19,SSW,211,7.0,10.0,36,0.00,,,0.00,Wunderground v.1.15,2013-03-08 18:45:00,
2013-03-08 13:51:00,51.6,24.8,30.19,NW,321,8.0,10.0,35,0.00,,,0.00,Wunderground v.1.15,2013-03-08 18:51:00,
2013-03-08 13:56:00,51.8,25.7,30.19,NNW,345,9.0,13.0,36,0.00,,,0.00,Wunderground v.1.15,2013-03-08 18:56:00,
2013-03-08 14:02:00,51.6,26.1,30.19,NNW,332,8.0,8.0,37,0.00,,,0.00,Wunderground v.1.15,2013-03-08 19:02:00,
2013-03-08 14:08:00,51.9,25.8,30.18,North,350,8.0,16.0,36,0.00,,,0.00,Wunderground v.1.15,2013-03-08 19:08:00,
2013-03-08 14:14:00,52.0,25.2,30.19,West,261,8.0,9.0,35,0.00,,,0.00,Wunderground v.1.15,2013-03-08 19:14:00,
2013-03-08 14:19:00,52.5,25.6,30.19,WNW,303,6.0,9.0,35,0.00,,,0.00,Wunderground v.1.15,2013-03-08 19:19:00,
2013-03-08 14:25:00,52.6,25.0,30.18,SW,215,5.0,8.0,34,0.00,,,0.00,Wunderground v.1.15,2013-03-08 19:25:00,
2013-03-08 14:31:00,52.8,25.9,30.19,North,355,7.0,10.0,35,0.00,,,0.00,Wunderground v.1.15,2013-03-08 19:31:00,
2013-03-08 14:37:00,52.1,25.9,30.18,North,10,10.0,15.0,36,0.00,,,0.00,Wunderground v.1.15,2013-03-08 19:37:00,
2013-03-08 14:43:00,52.6,25.7,30.18,NW,313,12.0,12.0,35,0.00,,,0.00,Wunderground v.1.15,2013-03-08 19:43:00,
2013-03-08 14:48:00,53.2,26.2,30.18,NNW,341,9.0,12.0,35,0.00,,,0.00,Wunderground v.1.15,2013-03-08 19:48:00,
2013-03-08 14:54:00,53.8,26.8,30.18,NNE,13,6.0,8.0,35,0.00,,,0.00,Wunderground v.1.15,2013-03-08 19:54:00,
2013-03-08 15:00:00,53.5,26.5,30.18,NNW,348,6.0,6.0,35,0.00,,,0.00,Wunderground v.1.15,2013-03-08 20:00:00,
2013-03-08 15:06:00,54.1,26.3,30.17,NNE,16,6.0,12.0,34,0.00,,,0.00,Wunderground v.1.15,2013-03-08 20:06:00,
2013-03-08 15:11:00,54.0,27.6,30.18,WNW,287,6.0,8.0,36,0.00,,,0.00,Wunderground v.1.15,2013-03-08 20:11:00,
2013-03-08 15:17:00,53.6,25.9,30.18,North,355,7.0,12.0,34,0.00,,,0.00,Wunderground v.1.15,2013-03-08 20:17:00,
2013-03-08 15:23:00,53.3,26.3,30.18,NNE,23,8.0,11.0,35,0.00,,,0.00,Wunderground v.1.15,2013-03-08 20:23:00,
2013-03-08 15:29:00,53.8,26.1,30.19,NNE,30,6.0,12.0,34,0.00,,,0.00,Wunderground v.1.15,2013-03-08 20:29:00,
2013-03-08 15:35:00,54.4,26.6,30.19,West,270,5.0,10.0,34,0.00,,,0.00,Wunderground v.1.15,2013-03-08 20:35:00,
2013-03-08 15:40:00,54.4,25.9,30.19,NE,36,7.0,11.0,33,0.00,,,0.00,Wunderground v.1.15,2013-03-08 20:40:00,
2013-03-08 15:46:00,54.0,26.2,30.19,NNW,336,8.0,11.0,34,0.00,,,0.00,Wunderground v.1.15,2013-03-08 20:46:00,
2013-03-08 15:52:00,54.1,26.3,30.19,NW,323,6.0,7.0,34,0.00,,,0.00,Wunderground v.1.15,2013-03-08 20:52:00,
2013-03-08 15:58:00,54.3,25.8,30.19,NNE,17,6.0,14.0,33,0.00,,,0.00,Wunderground v.1.15,2013-03-08 20:58:00,
2013-03-08 16:04:00,54.1,26.3,30.19,NNW,346,8.0,10.0,34,0.00,,,0.00,Wunderground v.1.15,2013-03-08 21:04:00,
2013-03-08 16:09:00,54.2,26.4,30.19,NNW,348,8.0,13.0,34,0.00,,,0.00,Wunderground v.1.15,2013-03-08 21:09:00,
2013-03-08 16:15:00,54.1,26.3,30.19,NNE,19,8.0,11.0,34,0.00,,,0.00,Wunderground v.1.15,2013-03-08 21:15:00,
2013-03-08 16:21:00,54.1,25.6,30.19,North,360,8.0,9.0,33,0.00,,,0.00,Wunderground v.1.15,2013-03-08 21:21:00,
2013-03-08 16:27:00,54.3,25.8,30.19,NNE,19,6.0,9.0,33,0.00,,,0.00,Wunderground v.1.15,2013-03-08 21:27:00,
2013-03-08 16:33:00,54.1,25.6,30.20,NW,315,7.0,10.0,33,0.00,,,0.00,Wunderground v.1.15,2013-03-08 21:33:00,
2013-03-08 16:39:00,54.2,25.7,30.19,NE,34,7.0,13.0,33,0.00,,,0.00,Wunderground v.1.15,2013-03-08 21:39:00,
2013-03-08 16:44:00,54.4,26.6,30.20,West,273,6.0,7.0,34,0.00,,,0.00,Wunderground v.1.15,2013-03-08 21:44:00,
2013-03-08 16:50:00,54.2,26.4,30.20,WNW,289,5.0,5.0,34,0.00,,,0.00,Wunderground v.1.15,2013-03-08 21:50:00,
2013-03-08 16:56:00,54.2,25.7,30.20,NW,304,6.0,9.0,33,0.00,,,0.00,Wunderground v.1.15,2013-03-08 21:56:00,
2013-03-08 17:02:00,54.2,26.4,30.20,WSW,242,5.0,5.0,34,0.00,,,0.00,Wunderground v.1.15,2013-03-08 22:02:00,
2013-03-08 17:07:00,54.2,26.4,30.21,NNE,15,4.0,10.0,34,0.00,,,0.00,Wunderground v.1.15,2013-03-08 22:07:00,
2013-03-08 17:13:00,53.9,26.1,30.21,NW,323,5.0,5.0,34,0.00,,,0.00,Wunderground v.1.15,2013-03-08 22:13:00,
2013-03-08 17:19:00,54.0,26.2,30.21,WSW,245,4.0,8.0,34,0.00,,,0.00,Wunderground v.1.15,2013-03-08 22:19:00,
2013-03-08 17:25:00,53.7,26.0,30.21,West,279,6.0,10.0,34,0.00,,,0.00,Wunderground v.1.15,2013-03-08 22:25:00,
2013-03-08 17:31:00,53.5,25.8,30.21,NW,310,5.0,5.0,34,0.00,,,0.00,Wunderground v.1.15,2013-03-08 22:31:00,
2013-03-08 17:37:00,53.4,25.7,30.21,WSW,255,4.0,11.0,34,0.00,,,0.00,Wunderground v.1.15,2013-03-08 22:37:00,
2013-03-08 17:43:00,53.1,26.1,30.21,West,262,4.0,8.0,35,0.00,,,0.00,Wunderground v.1.15,2013-03-08 22:43:00,
2013-03-08 17:48:00,52.9,26.0,30.21,WNW,285,5.0,8.0,35,0.00,,,0.00,Wunderground v.1.15,2013-03-08 22:48:00,
2013-03-08 17:54:00,52.8,25.9,30.21,North,5,4.0,5.0,35,0.00,,,0.00,Wunderground v.1.15,2013-03-08 22:54:00,
2013-03-08 18:00:00,52.4,26.2,30.21,North,355,3.0,3.0,36,0.00,,,0.00,Wunderground v.1.15,2013-03-08 23:00:00,
2013-03-08 18:06:00,51.9,26.4,30.22,NW,305,3.0,6.0,37,0.00,,,0.00,Wunderground v.1.15,2013-03-08 23:06:00,
2013-03-08 18:12:00,51.3,25.9,30.22,WNW,297,3.0,4.0,37,0.00,,,0.00,Wunderground v.1.15,2013-03-08 23:12:00,
2013-03-08 18:18:00,51.0,26.3,30.22,North,355,3.0,4.0,38,0.00,,,0.00,Wunderground v.1.15,2013-03-08 23:18:00,
2013-03-08 18:24:00,50.7,26.0,30.22,NNW,348,3.0,4.0,38,0.00,,,0.00,Wunderground v.1.15,2013-03-08 23:24:00,
2013-03-08 18:29:00,50.5,25.8,30.22,NNW,344,3.0,7.0,38,0.00,,,0.00,Wunderground v.1.15,2013-03-08 23:29:00,
2013-03-08 18:35:00,50.3,25.6,30.22,NNE,19,4.0,5.0,38,0.00,,,0.00,Wunderground v.1.15,2013-03-08 23:35:00,
2013-03-08 18:41:00,50.0,26.0,30.22,NNE,26,4.0,4.0,39,0.00,,,0.00,Wunderground v.1.15,2013-03-08 23:41:00,
2013-03-08 18:47:00,49.9,25.9,30.22,NNW,337,5.0,7.0,39,0.00,,,0.00,Wunderground v.1.15,2013-03-08 23:47:00,
2013-03-08 18:53:00,49.7,25.7,30.22,NNE,14,5.0,7.0,39,0.00,,,0.00,Wunderground v.1.15,2013-03-08 23:53:00,
2013-03-08 18:59:00,49.4,26.7,30.23,NNE,22,4.0,7.0,41,0.00,,,0.00,Wunderground v.1.15,2013-03-08 23:59:00,
2013-03-08 19:05:00,49.0,26.3,30.23,NNW,338,3.0,4.0,41,0.00,,,0.00,Wunderground v.1.15,2013-03-09 00:05:00,
2013-03-08 19:11:00,48.8,26.1,30.23,NW,317,4.0,5.0,41,0.00,,,0.00,Wunderground v.1.15,2013-03-09 00:11:00,
2013-03-08 19:17:00,48.7,26.6,30.23,North,5,5.0,8.0,42,0.00,,,0.00,Wunderground v.1.15,2013-03-09 00:17:00,
2013-03-08 19:23:00,48.5,26.4,30.23,NNE,12,4.0,5.0,42,0.00,,,0.00,Wunderground v.1.15,2013-03-09 00:23:00,
2013-03-08 19:28:00,48.3,26.2,30.23,North,5,4.0,8.0,42,0.00,,,0.00,Wunderground v.1.15,2013-03-09 00:28:00,
2013-03-08 19:34:00,48.1,26.1,30.23,NNE,12,5.0,5.0,42,0.00,,,0.00,Wunderground v.1.15,2013-03-09 00:34:00,
2013-03-08 19:40:00,47.9,26.5,30.24,NNE,20,6.0,6.0,43,0.00,,,0.00,Wunderground v.1.15,2013-03-09 00:40:00,
2013-03-08 19:46:00,47.7,26.3,30.24,NNE,17,6.0,8.0,43,0.00,,,0.00,Wunderground v.1.15,2013-03-09 00:46:00,
2013-03-08 19:52:00,47.4,26.6,30.24,NNE,22,5.0,8.0,44,0.00,,,0.00,Wunderground v.1.15,2013-03-09 00:52:00,
2013-03-08 19:57:00,47.4,26.0,30.24,North,360,5.0,8.0,43,0.00,,,0.00,Wunderground v.1.15,2013-03-09 00:57:00,
2013-03-08 20:03:00,47.3,26.5,30.24,North,355,5.0,8.0,44,0.00,,,0.00,Wunderground v.1.15,2013-03-09 01:03:00,
2013-03-08 20:09:00,47.3,26.5,30.24,North,349,6.0,12.0,44,0.00,,,0.00,Wunderground v.1.15,2013-03-09 01:09:00,
2013-03-08 20:15:00,47.2,26.4,30.24,North,360,6.0,7.0,44,0.00,,,0.00,Wunderground v.1.15,2013-03-09 01:15:00,
2013-03-08 20:20:00,47.0,26.7,30.25,North,355,5.0,5.0,45,0.00,,,0.00,Wunderground v.1.15,2013-03-09 01:20:00,
2013-03-08 20:26:00,46.8,26.6,30.25,North,5,5.0,7.0,45,0.00,,,0.00,Wunderground v.1.15,2013-03-09 01:26:00,
2013-03-08 20:32:00,46.8,26.6,30.25,North,360,6.0,10.0,45,0.00,,,0.00,Wunderground v.1.15,2013-03-09 01:32:00,
2013-03-08 20:38:00,46.7,27.0,30.25,NNE,29,6.0,10.0,46,0.00,,,0.00,Wunderground v.1.15,2013-03-09 01:38:00,
2013-03-08 20:44:00,46.5,26.8,30.26,NNE,26,5.0,6.0,46,0.00,,,0.00,Wunderground v.1.15,2013-03-09 01:44:00,
2013-03-08 20:50:00,46.4,26.7,30.25,NNE,23,5.0,5.0,46,0.00,,,0.00,Wunderground v.1.15,2013-03-09 01:50:00,
2013-03-08 20:55:00,46.4,26.7,30.26,NNE,16,7.0,11.0,46,0.00,,,0.00,Wunderground v.1.15,2013-03-09 01:55:00,
2013-03-08 21:00:00,46.3,27.2,30.26,NW,313,7.0,8.0,47,0.00,,,0.00,Wunderground v.1.15,2013-03-09 02:00:00,
2013-03-08 21:06:00,46.2,27.1,30.26,NNW,340,7.0,11.0,47,0.00,,,0.00,Wunderground v.1.15,2013-03-09 02:06:00,
2013-03-08 21:12:00,45.9,27.3,30.26,NNE,31,8.0,8.0,48,0.00,,,0.00,Wunderground v.1.15,2013-03-09 02:12:00,
2013-03-08 21:18:00,45.8,27.2,30.26,NNW,348,8.0,13.0,48,0.00,,,0.00,Wunderground v.1.15,2013-03-09 02:18:00,
2013-03-08 21:23:00,45.6,27.5,30.26,NNE,18,7.0,7.0,49,0.00,,,0.00,Wunderground v.1.15,2013-03-09 02:23:00,
2013-03-08 21:29:00,45.4,27.3,30.27,NNE,12,5.0,9.0,49,0.00,,,0.00,Wunderground v.1.15,2013-03-09 02:29:00,
2013-03-08 21:35:00,45.2,27.6,30.27,North,350,4.0,5.0,50,0.00,,,0.00,Wunderground v.1.15,2013-03-09 02:35:00,
2013-03-08 21:41:00,44.8,27.3,30.28,NNW,345,4.0,4.0,50,0.00,,,0.00,Wunderground v.1.15,2013-03-09 02:41:00,
2013-03-08 21:47:00,44.5,27.5,30.28,NNW,333,3.0,4.0,51,0.00,,,0.00,Wunderground v.1.15,2013-03-09 02:47:00,
2013-03-08 21:53:00,44.2,27.2,30.28,North,5,3.0,4.0,51,0.00,,,0.00,Wunderground v.1.15,2013-03-09 02:53:00,
2013-03-08 21:59:00,44.1,27.1,30.29,North,360,3.0,4.0,51,0.00,,,0.00,Wunderground v.1.15,2013-03-09 02:59:00,
2013-03-08 22:04:00,43.9,27.4,30.29,North,360,3.0,4.0,52,0.00,,,0.00,Wunderground v.1.15,2013-03-09 03:04:00,
2013-03-08 22:10:00,43.7,27.7,30.29,NNE,14,3.0,3.0,53,0.00,,,0.00,Wunderground v.1.15,2013-03-09 03:10:00,
2013-03-08 22:16:00,43.4,27.4,30.29,North,9,3.0,4.0,53,0.00,,,0.00,Wunderground v.1.15,2013-03-09 03:16:00,
2013-03-08 22:22:00,43.2,27.7,30.30,North,5,3.0,3.0,54,0.00,,,0.00,Wunderground v.1.15,2013-03-09 03:22:00,
2013-03-08 22:28:00,43.1,27.6,30.30,North,11,4.0,4.0,54,0.00,,,0.00,Wunderground v.1.15,2013-03-09 03:28:00,
2013-03-08 22:33:00,42.8,27.3,30.30,North,11,3.0,3.0,54,0.00,,,0.00,Wunderground v.1.15,2013-03-09 03:33:00,
2013-03-08 22:39:00,42.5,27.5,30.30,North,355,3.0,6.0,55,0.00,,,0.00,Wunderground v.1.15,2013-03-09 03:39:00,
2013-03-08 22:45:00,42.4,27.8,30.30,North,5,4.0,7.0,56,0.00,,,0.00,Wunderground v.1.15,2013-03-09 03:45:00,
2013-03-08 22:51:00,42.3,27.7,30.30,NNE,17,5.0,5.0,56,0.00,,,0.00,Wunderground v.1.15,2013-03-09 03:51:00,
2013-03-08 22:57:00,42.1,27.5,30.30,NNE,13,5.0,7.0,56,0.00,,,0.00,Wunderground v.1.15,2013-03-09 03:57:00,
2013-03-08 23:02:00,42.0,27.9,30.30,NNE,17,5.0,7.0,57,0.00,,,0.00,Wunderground v.1.15,2013-03-09 04:02:00,
2013-03-08 23:08:00,41.8,27.7,30.30,NNE,31,6.0,7.0,57,0.00,,,0.00,Wunderground v.1.15,2013-03-09 04:08:00,
2013-03-08 23:14:00,41.6,27.5,30.30,NNE,32,6.0,7.0,57,0.00,,,0.00,Wunderground v.1.15,2013-03-09 04:14:00,
2013-03-08 23:19:00,41.3,27.6,30.30,NNE,21,5.0,7.0,58,0.00,,,0.00,Wunderground v.1.15,2013-03-09 04:19:00,
2013-03-08 23:25:00,41.4,27.7,30.30,NNE,33,5.0,7.0,58,0.00,,,0.00,Wunderground v.1.15,2013-03-09 04:25:00,
2013-03-08 23:31:00,41.4,27.3,30.31,North,355,5.0,7.0,57,0.00,,,0.00,Wunderground v.1.15,2013-03-09 04:31:00,
2013-03-08 23:37:00,41.3,27.6,30.31,North,9,5.0,8.0,58,0.00,,,0.00,Wunderground v.1.15,2013-03-09 04:37:00,
2013-03-08 23:43:00,41.1,27.4,30.31,North,355,6.0,9.0,58,0.00,,,0.00,Wunderground v.1.15,2013-03-09 04:43:00,
2013-03-08 23:48:00,41.1,27.4,30.31,NNE,30,6.0,9.0,58,0.00,,,0.00,Wunderground v.1.15,2013-03-09 04:48:00,
2013-03-08 23:54:00,41.0,27.3,30.31,North,360,6.0,8.0,58,0.00,,,0.00,Wunderground v.1.15,2013-03-09 04:54:00,